Weather in Boguraev

Russia / Rostov Oblast     48°08′50″N   40°42′10″E
temp.,
°C
wind,
m/s
gust,
m/s
humid.,
%
clouds,
%
prec.,
mm/h
press.,
hPa
HPBL,
m
15 august, mon
mon1500:00+28e1019211 0.0 1010747
03:00+26e715255 0.0 1010471
06:00+25ene613298 0.0 1010345
09:00+32e812207 0.0 1010992
12:00+37ese10131491 0.0 10093312
15:00+38ese101213100 0.0 10083609
18:00+37ese911142 0.0 10073655
21:00+34e91619100 0.0 10081078
16 august, tue
tue1600:00+31e10172553 0.0 1010890
03:00+28e9172799 0.0 1011710
06:00+26e8162489 0.0 1011607
09:00+32ese101418100 0.0 10111059
12:00+36se81115100 0.0 10102237
15:00+36ese91015100 0.0 10092626
18:00+35e6101899 0.0 1008523
21:00+30ne4927100 0.4 1008195
17 august, wed
wed1700:00+28ene5113036 0.3 1008235
03:00+24se354773 2.4 100973
06:00+22ese38645 2.1 1009168
09:00+29se453488 2.1 1009547
12:00+34ssw23302 0.0 10081415
15:00+37ssw232449 0.0 10072838
18:00+36wsw33255 0.0 10072803
21:00+29wsw49320 0.0 1007160
18 august, thu
thu1800:00+26w384960 0.0 1007172
03:00+25wnw115555 0.0 100711
06:00+25wsw225399 0.0 100734
09:00+31wsw223340 0.0 1007569
12:00+35s2323100 0.1 10072469
15:00+36sse552274 0.1 10062500
18:00+34se452891 0.1 1006607
21:00+26ssw4756100 2.0 1008125
19 august, fri
fri1900:00+26wnw115376 0.3 100712
03:00+24se4867100 0.4 1008170
06:00+23ese2674100 0.0 1009214
09:00+27se67550 0.0 1010777
12:00+32ese44400 0.0 10091534
15:00+34ese542883 0.0 10092172
18:00+29se8935100 0.1 1009539
21:00+26se2649100 0.3 1010161